Location: Bittelbronn
(48.4454°N, 8.5870°E)
Time: 15:28:34
(UTC+00:00)

Cosmos 1953 - Pass Details

Date: 10 August 2024
Orbit: 504 x 523 km, 82.5° (Epoch: 18 September)

Event Time Altitude Azimuth Distance (km) Brightness Sun altitude
Rises 03:10:53 0° 176° (S) 2,603 5.4 -9.7°
Reaches altitude 10° 03:13:01 10° 172° (S) 1,726 4.6 -9.4°
Maximum altitude 03:16:42 53° 95° (E) 639 3.0 -8.9°
Drops below altitude 10° 03:20:27 10° 18° (NNE) 1,756 5.8 -8.4°
Sets 03:22:38 0° 14° (NNE) 2,654 6.6 -8.1°
